contact:dominique.lefevre@mio.osupytheas.fr, maurice.libes@osupytheas.fr, didier.mallarino@osupytheas.fr
Project:EMSO http://www.emso-fr.org/EMSO-France
Depth: 2436.0 m
Title:EMSO Ligure Ouest : Data MII capteur CSTAR
DateTime,Latitude,Longitude,Instrument_Serial,Reference_Counts,Signal_Counts,Corrected_Signal_raw_counts,Calculated_Beam_c_inverse_meters,Internal_thermistor_counts
DateTime,Latitude,Longitude,Instrument_Serial,Reference_Counts,Signal_Counts,Corrected_Signal_raw_counts,Calculated_Beam_c_inverse_meters,Internal_thermistor_counts
2019-09-28T00:02:58,42.805,6.029,CST-1368DR,7753,10856,15357,0.067,551
2019-09-28T00:06:00,42.805,6.029,CST-1368DR,7753,10856,15356,0.067,551
2019-09-28T00:09:01,42.805,6.029,CST-1368DR,7753,10853,15352,0.068,551
2019-09-28T00:12:03,42.805,6.029,CST-1368DR,7753,10855,15355,0.067,551
2019-09-28T00:15:04,42.805,6.029,CST-1368DR,7753,10854,15354,0.068,551
2019-09-28T00:18:06,42.805,6.029,CST-1368DR,7753,10855,15355,0.067,551
2019-09-28T00:21:08,42.805,6.029,CST-1368DR,7753,10855,15355,0.067,551
2019-09-28T00:24:09,42.805,6.029,CST-1368DR,7753,10855,15355,0.067,551
2019-09-28T00:27:11,42.805,6.029,CST-1368DR,7753,10855,15356,0.067,551
2019-09-28T00:30:13,42.805,6.029,CST-1368DR,7753,10855,15356,0.067,551
2019-09-28T00:33:14,42.805,6.029,CST-1368DR,7753,10855,15355,0.067,551
2019-09-28T00:36:16,42.805,6.029,CST-1368DR,7753,10855,15355,0.067,551
2019-09-28T00:39:18,42.805,6.029,CST-1368DR,7753,10855,15356,0.067,551
2019-09-28T00:42:19,42.805,6.029,CST-1368DR,7753,10856,15357,0.067,551
2019-09-28T00:45:21,42.805,6.029,CST-1368DR,7753,10856,15356,0.067,551
2019-09-28T00:48:22,42.805,6.029,CST-1368DR,7753,10855,15355,0.067,551
2019-09-28T00:51:24,42.805,6.029,CST-1368DR,7753,10856,15356,0.067,551
2019-09-28T00:54:26,42.805,6.029,CST-1368DR,7753,10853,15353,0.068,551
2019-09-28T00:57:28,42.805,6.029,CST-1368DR,7753,10855,15355,0.067,551
2019-09-28T01:00:29,42.805,6.029,CST-1368DR,7753,10855,15355,0.067,551
2019-09-28T01:03:31,42.805,6.029,CST-1368DR,7753,10854,15354,0.068,551
2019-09-28T01:06:33,42.805,6.029,CST-1368DR,7753,10854,15354,0.068,551
2019-09-28T01:09:34,42.805,6.029,CST-1368DR,7753,10854,15354,0.068,551
2019-09-28T01:12:36,42.805,6.029,CST-1368DR,7753,10855,15355,0.067,550
2019-09-28T01:15:38,42.805,6.029,CST-1368DR,7753,10855,15356,0.067,551
2019-09-28T01:18:39,42.805,6.029,CST-1368DR,7753,10855,15356,0.067,551
2019-09-28T01:21:41,42.805,6.029,CST-1368DR,7753,10854,15354,0.068,551
2019-09-28T01:24:43,42.805,6.029,CST-1368DR,7753,10855,15356,0.067,551
2019-09-28T01:27:44,42.805,6.029,CST-1368DR,7752,10853,15355,0.067,551
2019-09-28T01:30:46,42.805,6.029,CST-1368DR,7752,10854,15356,0.067,551
2019-09-28T01:33:48,42.805,6.029,CST-1368DR,7752,10855,15357,0.067,551
2019-09-28T01:36:49,42.805,6.029,CST-1368DR,7752,10855,15357,0.067,551
2019-09-28T01:39:51,42.805,6.029,CST-1368DR,7752,10854,15356,0.067,551
2019-09-28T01:42:52,42.805,6.029,CST-1368DR,7752,10855,15357,0.067,551
2019-09-28T01:45:54,42.805,6.029,CST-1368DR,7752,10854,15356,0.067,551
2019-09-28T01:48:56,42.805,6.029,CST-1368DR,7752,10853,15354,0.068,551
2019-09-28T01:51:57,42.805,6.029,CST-1368DR,7752,10853,15355,0.067,551
2019-09-28T01:54:59,42.805,6.029,CST-1368DR,7752,10854,15355,0.067,551
2019-09-28T01:58:01,42.805,6.029,CST-1368DR,7752,10854,15356,0.067,551
2019-09-28T02:01:02,42.805,6.029,CST-1368DR,7752,10854,15356,0.067,551
2019-09-28T02:04:04,42.805,6.029,CST-1368DR,7752,10854,15356,0.067,551
2019-09-28T02:07:05,42.805,6.029,CST-1368DR,7752,10854,15356,0.067,550
2019-09-28T02:10:07,42.805,6.029,CST-1368DR,7752,10854,15355,0.067,551
2019-09-28T02:13:09,42.805,6.029,CST-1368DR,7752,10853,15355,0.067,551
2019-09-28T02:16:10,42.805,6.029,CST-1368DR,7752,10855,15357,0.067,551
2019-09-28T02:19:12,42.805,6.029,CST-1368DR,7752,10855,15357,0.067,551
2019-09-28T02:22:14,42.805,6.029,CST-1368DR,7752,10854,15356,0.067,551
2019-09-28T02:25:15,42.805,6.029,CST-1368DR,7752,10853,15355,0.067,551
2019-09-28T02:28:17,42.805,6.029,CST-1368DR,7752,10854,15355,0.067,551
2019-09-28T02:31:18,42.805,6.029,CST-1368DR,7752,10854,15356,0.067,551
2019-09-28T02:34:20,42.805,6.029,CST-1368DR,7752,10854,15355,0.067,551
2019-09-28T02:37:22,42.805,6.029,CST-1368DR,7752,10853,15355,0.067,550
2019-09-28T02:40:23,42.805,6.029,CST-1368DR,7752,10854,15356,0.067,551
2019-09-28T02:43:25,42.805,6.029,CST-1368DR,7752,10854,15356,0.067,551
2019-09-28T02:46:27,42.805,6.029,CST-1368DR,7752,10855,15358,0.067,551
2019-09-28T02:49:28,42.805,6.029,CST-1368DR,7752,10855,15357,0.067,550
2019-09-28T02:52:30,42.805,6.029,CST-1368DR,7752,10853,15354,0.068,551
2019-09-28T02:55:31,42.805,6.029,CST-1368DR,7752,10854,15356,0.067,551
2019-09-28T02:58:33,42.805,6.029,CST-1368DR,7752,10854,15356,0.067,550
2019-09-28T03:01:35,42.805,6.029,CST-1368DR,7752,10852,15353,0.068,551
2019-09-28T03:04:36,42.805,6.029,CST-1368DR,7752,10854,15356,0.067,551
2019-09-28T03:07:38,42.805,6.029,CST-1368DR,7752,10854,15356,0.067,551
2019-09-28T03:10:40,42.805,6.029,CST-1368DR,7752,10854,15355,0.067,550
2019-09-28T03:13:41,42.805,6.029,CST-1368DR,7752,10855,15357,0.067,551
2019-09-28T03:16:43,42.805,6.029,CST-1368DR,7752,10854,15356,0.067,551
2019-09-28T03:19:44,42.805,6.029,CST-1368DR,7752,10854,15356,0.067,551
2019-09-28T03:22:46,42.805,6.029,CST-1368DR,7751,10851,15353,0.068,550
2019-09-28T03:25:48,42.805,6.029,CST-1368DR,7751,10854,15358,0.067,551
2019-09-28T03:28:49,42.805,6.029,CST-1368DR,7751,10854,15358,0.067,551
2019-09-28T03:31:51,42.805,6.029,CST-1368DR,7751,10854,15357,0.067,551
2019-09-28T03:34:53,42.805,6.029,CST-1368DR,7751,10854,15357,0.067,550
2019-09-28T03:37:54,42.805,6.029,CST-1368DR,7751,10854,15357,0.067,551
2019-09-28T03:40:56,42.805,6.029,CST-1368DR,7751,10852,15355,0.067,551
2019-09-28T03:43:58,42.805,6.029,CST-1368DR,7751,10850,15352,0.068,551
2019-09-28T03:46:59,42.805,6.029,CST-1368DR,7751,10852,15355,0.067,551
2019-09-28T03:50:01,42.805,6.029,CST-1368DR,7751,10853,15356,0.067,551
2019-09-28T03:53:02,42.805,6.029,CST-1368DR,7751,10852,15355,0.067,551
2019-09-28T03:56:04,42.805,6.029,CST-1368DR,7751,10854,15357,0.067,551
2019-09-28T03:59:06,42.805,6.029,CST-1368DR,7751,10852,15355,0.067,551
2019-09-28T04:02:07,42.805,6.029,CST-1368DR,7751,10854,15357,0.067,551
2019-09-28T04:05:09,42.805,6.029,CST-1368DR,7751,10852,15355,0.067,551
2019-09-28T04:08:11,42.805,6.029,CST-1368DR,7751,10852,15355,0.067,551
2019-09-28T04:11:12,42.805,6.029,CST-1368DR,7751,10851,15354,0.068,551
2019-09-28T04:14:14,42.805,6.029,CST-1368DR,7751,10853,15356,0.067,550
2019-09-28T04:17:16,42.805,6.029,CST-1368DR,7751,10852,15355,0.067,551
2019-09-28T04:20:17,42.805,6.029,CST-1368DR,7751,10852,15355,0.067,551
2019-09-28T04:23:19,42.805,6.029,CST-1368DR,7751,10853,15356,0.067,551
2019-09-28T04:26:20,42.805,6.029,CST-1368DR,7751,10853,15356,0.067,550
2019-09-28T04:29:22,42.805,6.029,CST-1368DR,7751,10853,15356,0.067,551
2019-09-28T04:32:24,42.805,6.029,CST-1368DR,7751,10852,15355,0.067,551
2019-09-28T04:35:26,42.805,6.029,CST-1368DR,7751,10852,15355,0.067,551
2019-09-28T04:38:27,42.805,6.029,CST-1368DR,7751,10852,15355,0.067,551
2019-09-28T04:41:29,42.805,6.029,CST-1368DR,7751,10850,15352,0.068,550
2019-09-28T04:44:31,42.805,6.029,CST-1368DR,7751,10852,15355,0.067,551
2019-09-28T04:47:32,42.805,6.029,CST-1368DR,7751,10852,15355,0.067,551
2019-09-28T04:50:34,42.805,6.029,CST-1368DR,7751,10854,15357,0.067,550
2019-09-28T04:53:36,42.805,6.029,CST-1368DR,7751,10853,15356,0.067,551
2019-09-28T04:56:37,42.805,6.029,CST-1368DR,7751,10853,15356,0.067,551
2019-09-28T04:59:39,42.805,6.029,CST-1368DR,7751,10853,15356,0.067,550
2019-09-28T05:02:40,42.805,6.029,CST-1368DR,7751,10853,15356,0.067,551
2019-09-28T05:05:42,42.805,6.029,CST-1368DR,7751,10853,15356,0.067,551
2019-09-28T05:08:44,42.805,6.029,CST-1368DR,7751,10853,15356,0.067,551
2019-09-28T05:11:45,42.805,6.029,CST-1368DR,7751,10852,15355,0.067,551
2019-09-28T05:14:47,42.805,6.029,CST-1368DR,7751,10852,15355,0.067,551
2019-09-28T05:17:49,42.805,6.029,CST-1368DR,7751,10852,15355,0.067,551
2019-09-28T05:20:50,42.805,6.029,CST-1368DR,7751,10853,15356,0.067,551
2019-09-28T05:23:52,42.805,6.029,CST-1368DR,7751,10852,15355,0.067,551
2019-09-28T05:26:54,42.805,6.029,CST-1368DR,7751,10852,15354,0.068,551
2019-09-28T05:29:55,42.805,6.029,CST-1368DR,7750,10852,15357,0.067,551
2019-09-28T05:32:57,42.805,6.029,CST-1368DR,7751,10851,15353,0.068,551
2019-09-28T05:35:59,42.805,6.029,CST-1368DR,7750,10853,15357,0.067,551
2019-09-28T05:39:00,42.805,6.029,CST-1368DR,7750,10849,15352,0.068,551
2019-09-28T05:42:02,42.805,6.029,CST-1368DR,7750,10852,15357,0.067,551
2019-09-28T05:45:04,42.805,6.029,CST-1368DR,7750,10852,15357,0.067,551
2019-09-28T05:48:05,42.805,6.029,CST-1368DR,7750,10853,15358,0.067,551
2019-09-28T05:51:07,42.805,6.029,CST-1368DR,7750,10852,15357,0.067,551
2019-09-28T05:54:08,42.805,6.029,CST-1368DR,7750,10849,15352,0.068,551
2019-09-28T05:57:10,42.805,6.029,CST-1368DR,7750,10850,15354,0.068,551
2019-09-28T06:00:12,42.805,6.029,CST-1368DR,7750,10852,15357,0.067,551
2019-09-28T06:03:13,42.805,6.029,CST-1368DR,7750,10850,15354,0.068,551
2019-09-28T06:06:15,42.805,6.029,CST-1368DR,7750,10851,15355,0.067,551
2019-09-28T06:09:17,42.805,6.029,CST-1368DR,7750,10851,15356,0.067,551
2019-09-28T06:12:18,42.805,6.029,CST-1368DR,7750,10849,15353,0.068,551
2019-09-28T06:15:20,42.805,6.029,CST-1368DR,7750,10851,15355,0.067,551
2019-09-28T06:18:22,42.805,6.029,CST-1368DR,7750,10852,15356,0.067,551
2019-09-28T06:21:23,42.805,6.029,CST-1368DR,7750,10851,15355,0.067,551
2019-09-28T06:24:25,42.805,6.029,CST-1368DR,7750,10852,15356,0.067,551
2019-09-28T06:27:26,42.805,6.029,CST-1368DR,7750,10851,15355,0.067,551
2019-09-28T06:30:28,42.805,6.029,CST-1368DR,7750,10852,15356,0.067,551
2019-09-28T06:33:30,42.805,6.029,CST-1368DR,7750,10851,15355,0.067,551
2019-09-28T06:36:31,42.805,6.029,CST-1368DR,7750,10852,15356,0.067,551
2019-09-28T06:39:33,42.805,6.029,CST-1368DR,7750,10850,15353,0.068,551
2019-09-28T06:42:35,42.805,6.029,CST-1368DR,7750,10851,15355,0.067,551
2019-09-28T06:45:36,42.805,6.029,CST-1368DR,7750,10850,15354,0.068,551
2019-09-28T06:48:38,42.805,6.029,CST-1368DR,7750,10851,15355,0.067,551
2019-09-28T06:51:39,42.805,6.029,CST-1368DR,7750,10852,15356,0.067,551
2019-09-28T06:54:41,42.805,6.029,CST-1368DR,7750,10852,15356,0.067,551
2019-09-28T06:57:43,42.805,6.029,CST-1368DR,7750,10849,15352,0.068,551
2019-09-28T07:00:44,42.805,6.029,CST-1368DR,7750,10851,15356,0.067,551
2019-09-28T07:03:46,42.805,6.029,CST-1368DR,7750,10851,15355,0.067,551
2019-09-28T07:06:48,42.805,6.029,CST-1368DR,7750,10852,15357,0.067,551
2019-09-28T07:09:49,42.805,6.029,CST-1368DR,7750,10851,15355,0.067,551
2019-09-28T07:12:51,42.805,6.029,CST-1368DR,7750,10852,15357,0.067,551
2019-09-28T07:15:53,42.805,6.029,CST-1368DR,7750,10852,15356,0.067,551
2019-09-28T07:18:54,42.805,6.029,CST-1368DR,7750,10852,15357,0.067,551
2019-09-28T07:21:56,42.805,6.029,CST-1368DR,7749,10850,15356,0.067,551
2019-09-28T07:24:57,42.805,6.029,CST-1368DR,7749,10851,15357,0.067,551
2019-09-28T07:27:59,42.805,6.029,CST-1368DR,7749,10851,15356,0.067,551
2019-09-28T07:31:01,42.805,6.029,CST-1368DR,7749,10851,15357,0.067,551
2019-09-28T07:34:02,42.805,6.029,CST-1368DR,7749,10852,15359,0.066,551
2019-09-28T07:37:04,42.805,6.029,CST-1368DR,7749,10825,15320,0.077,551
2019-09-28T07:40:06,42.805,6.029,CST-1368DR,7749,10851,15358,0.067,551
2019-09-28T07:43:07,42.805,6.029,CST-1368DR,7749,10852,15358,0.067,551
2019-09-28T07:46:09,42.805,6.029,CST-1368DR,7749,10851,15357,0.067,550
2019-09-28T07:49:10,42.805,6.029,CST-1368DR,7749,10848,15353,0.068,551
2019-09-28T07:52:12,42.805,6.029,CST-1368DR,7749,10852,15358,0.067,551
2019-09-28T07:55:14,42.805,6.029,CST-1368DR,7749,10851,15357,0.067,551
2019-09-28T07:58:15,42.805,6.029,CST-1368DR,7749,10851,15358,0.067,551
2019-09-28T08:01:17,42.805,6.029,CST-1368DR,7749,10850,15356,0.067,551
2019-09-28T08:04:19,42.805,6.029,CST-1368DR,7749,10851,15357,0.067,551
2019-09-28T08:07:20,42.805,6.029,CST-1368DR,7749,10850,15356,0.067,551
2019-09-28T08:10:22,42.805,6.029,CST-1368DR,7749,10851,15358,0.067,551
2019-09-28T08:13:23,42.805,6.029,CST-1368DR,7749,10849,15354,0.068,551
2019-09-28T08:16:25,42.805,6.029,CST-1368DR,7749,10851,15356,0.067,551
2019-09-28T08:19:27,42.805,6.029,CST-1368DR,7749,10848,15352,0.068,551
2019-09-28T08:22:28,42.805,6.029,CST-1368DR,7749,10850,15355,0.067,551
2019-09-28T08:25:30,42.805,6.029,CST-1368DR,7749,10849,15354,0.068,551
2019-09-28T08:28:32,42.805,6.029,CST-1368DR,7749,10850,15355,0.067,551
2019-09-28T08:31:34,42.805,6.029,CST-1368DR,7749,10841,15342,0.071,551
2019-09-28T08:34:35,42.805,6.029,CST-1368DR,7749,10850,15356,0.067,551
2019-09-28T08:37:37,42.805,6.029,CST-1368DR,7749,10851,15357,0.067,551
2019-09-28T08:40:39,42.805,6.029,CST-1368DR,7749,10851,15357,0.067,551
2019-09-28T08:43:40,42.805,6.029,CST-1368DR,7749,10850,15355,0.067,551
2019-09-28T08:46:42,42.805,6.029,CST-1368DR,7749,10849,15354,0.068,551
2019-09-28T08:49:44,42.805,6.029,CST-1368DR,7749,10851,15357,0.067,551
2019-09-28T08:52:45,42.805,6.029,CST-1368DR,7749,10849,15355,0.067,551
2019-09-28T08:55:47,42.805,6.029,CST-1368DR,7749,10849,15355,0.067,551
2019-09-28T08:58:49,42.805,6.029,CST-1368DR,7749,10849,15354,0.068,551
2019-09-28T09:01:50,42.805,6.029,CST-1368DR,7749,10849,15354,0.068,551
2019-09-28T09:04:52,42.805,6.029,CST-1368DR,7749,10850,15356,0.067,550
2019-09-28T09:07:54,42.805,6.029,CST-1368DR,7749,10845,15348,0.069,551
2019-09-28T09:10:55,42.805,6.029,CST-1368DR,7749,10850,15356,0.067,551
2019-09-28T09:13:57,42.805,6.029,CST-1368DR,7749,10851,15356,0.067,551
2019-09-28T09:16:58,42.805,6.029,CST-1368DR,7748,10850,15357,0.067,551
2019-09-28T09:20:00,42.805,6.029,CST-1368DR,7748,10848,15355,0.067,551
2019-09-28T09:23:02,42.805,6.029,CST-1368DR,7748,10850,15358,0.067,551
2019-09-28T09:26:03,42.805,6.029,CST-1368DR,7748,10850,15358,0.067,551
2019-09-28T09:29:05,42.805,6.029,CST-1368DR,7748,10848,15355,0.067,551
2019-09-28T09:32:07,42.805,6.029,CST-1368DR,7748,10848,15355,0.067,550
2019-09-28T09:35:09,42.805,6.029,CST-1368DR,7748,10849,15356,0.067,551
2019-09-28T09:38:10,42.805,6.029,CST-1368DR,7748,10847,15354,0.068,551
2019-09-28T09:41:12,42.805,6.029,CST-1368DR,7748,10849,15357,0.067,551
2019-09-28T09:44:13,42.805,6.029,CST-1368DR,7748,10849,15357,0.067,551
2019-09-28T09:47:15,42.805,6.029,CST-1368DR,7748,10846,15352,0.068,551
2019-09-28T09:50:17,42.805,6.029,CST-1368DR,7748,10849,15356,0.067,551
2019-09-28T09:53:18,42.805,6.029,CST-1368DR,7748,10848,15355,0.067,551
2019-09-28T09:56:20,42.805,6.029,CST-1368DR,7748,10848,15354,0.068,551
2019-09-28T09:59:22,42.805,6.029,CST-1368DR,7748,10848,15354,0.068,551
2019-09-28T10:02:23,42.805,6.029,CST-1368DR,7748,10848,15355,0.067,551
2019-09-28T10:05:25,42.805,6.029,CST-1368DR,7748,10848,15354,0.068,551
2019-09-28T10:08:26,42.805,6.029,CST-1368DR,7748,10848,15355,0.067,551
2019-09-28T10:11:28,42.805,6.029,CST-1368DR,7748,10849,15356,0.067,551
2019-09-28T10:14:30,42.805,6.029,CST-1368DR,7748,10849,15356,0.067,551
2019-09-28T10:17:31,42.805,6.029,CST-1368DR,7748,10849,15356,0.067,551
2019-09-28T10:20:33,42.805,6.029,CST-1368DR,7748,10849,15356,0.067,550
2019-09-28T10:23:35,42.805,6.029,CST-1368DR,7748,10850,15357,0.067,551
2019-09-28T10:26:36,42.805,6.029,CST-1368DR,7748,10849,15356,0.067,551
2019-09-28T10:29:38,42.805,6.029,CST-1368DR,7748,10849,15356,0.067,551
2019-09-28T10:32:40,42.805,6.029,CST-1368DR,7748,10849,15356,0.067,551
2019-09-28T10:35:41,42.805,6.029,CST-1368DR,7748,10849,15356,0.067,551
2019-09-28T10:38:43,42.805,6.029,CST-1368DR,7748,10849,15357,0.067,551
2019-09-28T10:41:44,42.805,6.029,CST-1368DR,7748,10850,15358,0.067,551
2019-09-28T10:44:46,42.805,6.029,CST-1368DR,7748,10849,15356,0.067,551
2019-09-28T10:47:48,42.805,6.029,CST-1368DR,7748,10849,15356,0.067,551
2019-09-28T10:50:49,42.805,6.029,CST-1368DR,7748,10849,15356,0.067,551
2019-09-28T10:53:51,42.805,6.029,CST-1368DR,7748,10848,15355,0.067,551
2019-09-28T10:56:53,42.805,6.029,CST-1368DR,7748,10849,15356,0.067,551
2019-09-28T10:59:54,42.805,6.029,CST-1368DR,7748,10850,15357,0.067,551
2019-09-28T11:02:56,42.805,6.029,CST-1368DR,7748,10850,15357,0.067,551
2019-09-28T11:05:58,42.805,6.029,CST-1368DR,7748,10851,15358,0.067,551
2019-09-28T11:08:59,42.805,6.029,CST-1368DR,7748,10849,15356,0.067,551
2019-09-28T11:12:01,42.805,6.029,CST-1368DR,7748,10850,15358,0.067,551
2019-09-28T11:15:02,42.805,6.029,CST-1368DR,7747,10849,15358,0.067,551
2019-09-28T11:18:04,42.805,6.029,CST-1368DR,7747,10849,15358,0.067,551
2019-09-28T11:21:06,42.805,6.029,CST-1368DR,7747,10850,15359,0.066,551
2019-09-28T11:24:07,42.805,6.029,CST-1368DR,7747,10850,15359,0.066,551
2019-09-28T11:27:09,42.805,6.029,CST-1368DR,7747,10849,15358,0.067,551
2019-09-28T11:30:11,42.805,6.029,CST-1368DR,7747,10849,15358,0.067,551
2019-09-28T11:33:12,42.805,6.029,CST-1368DR,7747,10848,15356,0.067,551
2019-09-28T11:36:14,42.805,6.029,CST-1368DR,7747,10849,15358,0.067,551
2019-09-28T11:39:15,42.805,6.029,CST-1368DR,7747,10849,15357,0.067,551
2019-09-28T11:42:17,42.805,6.029,CST-1368DR,7747,10849,15358,0.067,551
2019-09-28T11:45:19,42.805,6.029,CST-1368DR,7747,10849,15358,0.067,551
2019-09-28T11:48:20,42.805,6.029,CST-1368DR,7747,10850,15359,0.066,551
2019-09-28T11:51:22,42.805,6.029,CST-1368DR,7747,10849,15358,0.067,551
2019-09-28T11:54:24,42.805,6.029,CST-1368DR,7747,10850,15359,0.066,551
2019-09-28T11:57:25,42.805,6.029,CST-1368DR,7747,10851,15360,0.066,551
2019-09-28T12:00:27,42.805,6.029,CST-1368DR,7747,10849,15358,0.067,551
2019-09-28T12:03:29,42.805,6.029,CST-1368DR,7747,10849,15358,0.067,551
2019-09-28T12:06:30,42.805,6.029,CST-1368DR,7747,10850,15359,0.066,551
2019-09-28T12:09:32,42.805,6.029,CST-1368DR,7747,10846,15353,0.068,551
2019-09-28T12:12:33,42.805,6.029,CST-1368DR,7747,10843,15350,0.069,551
2019-09-28T12:15:35,42.805,6.029,CST-1368DR,7747,10846,15354,0.068,551
2019-09-28T12:18:37,42.805,6.029,CST-1368DR,7747,10848,15356,0.067,551
2019-09-28T12:21:38,42.805,6.029,CST-1368DR,7747,10849,15358,0.067,551
2019-09-28T12:24:40,42.805,6.029,CST-1368DR,7747,10848,15357,0.067,550
2019-09-28T12:27:42,42.805,6.029,CST-1368DR,7747,10848,15357,0.067,551
2019-09-28T12:30:43,42.805,6.029,CST-1368DR,7747,10849,15358,0.067,551
2019-09-28T12:33:45,42.805,6.029,CST-1368DR,7747,10849,15357,0.067,551
2019-09-28T12:36:46,42.805,6.029,CST-1368DR,7747,10848,15356,0.067,551
2019-09-28T12:39:48,42.805,6.029,CST-1368DR,7747,10849,15358,0.067,551
2019-09-28T12:42:50,42.805,6.029,CST-1368DR,7747,10848,15356,0.067,551
2019-09-28T12:45:51,42.805,6.029,CST-1368DR,7747,10849,15358,0.067,551
2019-09-28T12:48:53,42.805,6.029,CST-1368DR,7747,10848,15356,0.067,551
2019-09-28T12:51:55,42.805,6.029,CST-1368DR,7747,10850,15360,0.066,551
2019-09-28T12:54:56,42.805,6.029,CST-1368DR,7747,10848,15357,0.067,551
2019-09-28T12:57:58,42.805,6.029,CST-1368DR,7747,10849,15358,0.067,551
2019-09-28T13:00:59,42.805,6.029,CST-1368DR,7747,10849,15358,0.067,551
2019-09-28T13:04:01,42.805,6.029,CST-1368DR,7747,10849,15358,0.067,551
2019-09-28T13:07:03,42.805,6.029,CST-1368DR,7747,10849,15357,0.067,551
2019-09-28T13:10:04,42.805,6.029,CST-1368DR,7747,10849,15358,0.067,551
2019-09-28T13:13:06,42.805,6.029,CST-1368DR,7747,10849,15358,0.067,551
2019-09-28T13:16:08,42.805,6.029,CST-1368DR,7747,10848,15357,0.067,550
2019-09-28T13:19:10,42.805,6.029,CST-1368DR,7747,10849,15358,0.067,550
2019-09-28T13:22:11,42.805,6.029,CST-1368DR,7746,10848,15359,0.066,550
2019-09-28T13:25:13,42.805,6.029,CST-1368DR,7746,10848,15358,0.067,550
2019-09-28T13:28:14,42.805,6.029,CST-1368DR,7746,10849,15360,0.066,551
2019-09-28T13:31:16,42.805,6.029,CST-1368DR,7746,10849,15359,0.066,551
2019-09-28T13:34:18,42.805,6.029,CST-1368DR,7746,10849,15360,0.066,550
2019-09-28T13:37:19,42.805,6.029,CST-1368DR,7746,10849,15360,0.066,551
2019-09-28T13:40:21,42.805,6.029,CST-1368DR,7746,10848,15358,0.067,551
2019-09-28T13:43:23,42.805,6.029,CST-1368DR,7746,10846,15356,0.067,551
2019-09-28T13:46:24,42.805,6.029,CST-1368DR,7746,10848,15359,0.066,551
2019-09-28T13:49:26,42.805,6.029,CST-1368DR,7746,10847,15357,0.067,551
2019-09-28T13:52:27,42.805,6.029,CST-1368DR,7746,10848,15358,0.067,550
2019-09-28T13:55:29,42.805,6.029,CST-1368DR,7746,10847,15357,0.067,551
2019-09-28T13:58:31,42.805,6.029,CST-1368DR,7746,10848,15358,0.067,551
2019-09-28T14:01:33,42.805,6.029,CST-1368DR,7746,10848,15358,0.067,551
2019-09-28T14:04:35,42.805,6.029,CST-1368DR,7746,10848,15358,0.067,551
2019-09-28T14:07:36,42.805,6.029,CST-1368DR,7746,10849,15359,0.066,551
2019-09-28T14:10:38,42.805,6.029,CST-1368DR,7746,10848,15358,0.067,551
2019-09-28T14:13:40,42.805,6.029,CST-1368DR,7746,10848,15358,0.067,551
2019-09-28T14:16:41,42.805,6.029,CST-1368DR,7746,10845,15354,0.068,551
2019-09-28T14:19:43,42.805,6.029,CST-1368DR,7746,10847,15357,0.067,551
2019-09-28T14:22:45,42.805,6.029,CST-1368DR,7746,10848,15358,0.067,551
2019-09-28T14:25:46,42.805,6.029,CST-1368DR,7746,10848,15359,0.066,551
2019-09-28T14:28:48,42.805,6.029,CST-1368DR,7746,10847,15357,0.067,551
2019-09-28T14:31:50,42.805,6.029,CST-1368DR,7746,10847,15357,0.067,551
2019-09-28T14:34:51,42.805,6.029,CST-1368DR,7746,10848,15358,0.067,551
2019-09-28T14:37:53,42.805,6.029,CST-1368DR,7746,10848,15359,0.066,551
2019-09-28T14:40:55,42.805,6.029,CST-1368DR,7746,10846,15355,0.067,551
2019-09-28T14:43:56,42.805,6.029,CST-1368DR,7746,10847,15357,0.067,551
2019-09-28T14:46:58,42.805,6.029,CST-1368DR,7746,10848,15358,0.067,551
2019-09-28T14:50:00,42.805,6.029,CST-1368DR,7746,10848,15358,0.067,551
2019-09-28T14:53:01,42.805,6.029,CST-1368DR,7746,10848,15358,0.067,551
2019-09-28T14:56:03,42.805,6.029,CST-1368DR,7746,10847,15357,0.067,551
2019-09-28T14:59:04,42.805,6.029,CST-1368DR,7746,10846,15355,0.067,551
2019-09-28T15:02:06,42.805,6.029,CST-1368DR,7746,10846,15355,0.067,551
2019-09-28T15:05:08,42.805,6.029,CST-1368DR,7746,10848,15358,0.067,551
2019-09-28T15:08:09,42.805,6.029,CST-1368DR,7746,10847,15357,0.067,551
2019-09-28T15:11:11,42.805,6.029,CST-1368DR,7746,10848,15358,0.067,551
2019-09-28T15:14:13,42.805,6.029,CST-1368DR,7746,10846,15356,0.067,551
2019-09-28T15:17:14,42.805,6.029,CST-1368DR,7746,10846,15356,0.067,551
2019-09-28T15:20:16,42.805,6.029,CST-1368DR,7746,10847,15357,0.067,551
2019-09-28T15:23:17,42.805,6.029,CST-1368DR,7746,10846,15355,0.067,550
2019-09-28T15:26:19,42.805,6.029,CST-1368DR,7746,10846,15356,0.067,551
2019-09-28T15:29:21,42.805,6.029,CST-1368DR,7746,10847,15357,0.067,551
2019-09-28T15:32:23,42.805,6.029,CST-1368DR,7746,10848,15358,0.067,551
2019-09-28T15:35:24,42.805,6.029,CST-1368DR,7746,10847,15357,0.067,551
2019-09-28T15:38:26,42.805,6.029,CST-1368DR,7746,10846,15356,0.067,551
2019-09-28T15:41:27,42.805,6.029,CST-1368DR,7746,10846,15356,0.067,551
2019-09-28T15:44:29,42.805,6.029,CST-1368DR,7745,10845,15356,0.067,551
2019-09-28T15:47:31,42.805,6.029,CST-1368DR,7745,10845,15355,0.067,551
2019-09-28T15:50:32,42.805,6.029,CST-1368DR,7745,10846,15357,0.067,551
2019-09-28T15:53:34,42.805,6.029,CST-1368DR,7746,10846,15355,0.067,551
2019-09-28T15:56:36,42.805,6.029,CST-1368DR,7746,10847,15357,0.067,551
2019-09-28T15:59:37,42.805,6.029,CST-1368DR,7745,10847,15359,0.066,551
2019-09-28T16:02:39,42.805,6.029,CST-1368DR,7745,10847,15359,0.066,551
2019-09-28T16:05:40,42.805,6.029,CST-1368DR,7746,10848,15358,0.067,551
2019-09-28T16:08:42,42.805,6.029,CST-1368DR,7745,10846,15358,0.067,550
2019-09-28T16:11:44,42.805,6.029,CST-1368DR,7746,10847,15357,0.067,551
2019-09-28T16:14:45,42.805,6.029,CST-1368DR,7745,10847,15359,0.066,551
2019-09-28T16:17:47,42.805,6.029,CST-1368DR,7745,10845,15356,0.067,551
2019-09-28T16:20:49,42.805,6.029,CST-1368DR,7745,10847,15359,0.066,550
2019-09-28T16:23:50,42.805,6.029,CST-1368DR,7745,10845,15356,0.067,551
2019-09-28T16:26:52,42.805,6.029,CST-1368DR,7745,10847,15359,0.066,551
2019-09-28T16:29:54,42.805,6.029,CST-1368DR,7745,10845,15356,0.067,551
2019-09-28T16:32:55,42.805,6.029,CST-1368DR,7745,10844,15354,0.068,551
2019-09-28T16:35:57,42.805,6.029,CST-1368DR,7745,10845,15356,0.067,551
2019-09-28T16:38:59,42.805,6.029,CST-1368DR,7745,10845,15356,0.067,550